Regional Weather Roundup
Issued by NWS

Home | Current Version | Previous Version | Text Only | Print | Product List | Glossary On
Versions: 1 2 3 4 5 6 7 8 9 10 11 12 13 14 15 16 17 18 19 20 21 22 23 24 25 26 27 28 29 30 31 32 33 34 35 36 37 38 39 40 41 42 43 44 45 46 47 48 49 50
125
ASUS46 KSEW 220910
RWRWA

WASHINGTON REGIONAL WEATHER ROUNDUP
NATIONAL WEATHER SERVICE SEATTLE WA
100 AM PST SUN JAN 22 2017

NOTE:"FAIR" INDICATES FEW OR NO CLOUDS BELOW 12,000 FEET WITH NO
SIGNIFICANT WEATHER AND/OR OBSTRUCTIONS TO VISIBILITY.

WAZ507-509-555>559-221000-
SEATTLE, TACOMA, EVERETT, AND VICINITY

CITY           SKY/WX    TMP DP  RH WIND       PRES   REMARKS
EVERETT        MOCLDY    43  38  82 SE8       29.59F
BOEING FIELD   CLOUDY    43  41  93 S7        29.60F
RENTON         CLOUDY    44  39  82 CALM      29.59F
SEATAC AIRPORT CLOUDY    44  39  82 E10       29.58F
JBLM-MCCHORD   PTCLDY    40  40 100 SE3       29.58F
PUYALLUP         N/A     37  37 100 CALM      29.58F FOG
BREMERTON      CLOUDY    41  41 100 CALM      29.61F
JBLM-FT LEWIS  PTCLDY    39  39 100 CALM      29.57F
TACOMA NARROWS CLOUDY    43  40  89 E6        29.58F
$$

WAZ001-503-506-510-514-515-221000-
NORTH INTERIOR

CITY           SKY/WX    TMP DP  RH WIND       PRES   REMARKS
BELLINGHAM     CLOUDY    41  38  89 CALM      29.60R
FRIDAY HARBOR  PTCLDY    45  39  79 E9        29.58F
EASTSOUND      PTCLDY    46  37  71 S3        29.56F
PORT ANGELES   PTCLDY    32  31  96 CALM      29.53F
EDIZ HOOK      FAIR      39  37  93 CALM      29.54S
PORT TOWNSEND  CLOUDY    45  43  93 SE10G16   29.58S FOG
NAS WHIDBEY    MOCLDY    47  37  68 SE16      29.61F
ARLINGTON      NOT AVBL
BURLINGTON     PTCLDY    43  37  81 E9        29.60S
$$

WAZ020-022-039-040-504-511-512-221000-
SOUTHWEST INTERIOR

CITY           SKY/WX    TMP DP  RH WIND       PRES   REMARKS
SHELTON        CLOUDY    43  41  93 E3        29.55F
OLYMPIA        FOG       35  35 100 CALM      29.56F VSB 1/4
CHEHALIS       FAIR      41  41 100 CALM      29.55F
KELSO          MOCLDY    40  39  97 CALM      29.53F
VANCOUVER      CLOUDY    35  33  92 CALM      29.53F
SCAPPOOSE, OR  FOG       35  35 100 CALM      29.52F VSB 1/2
PORTLAND, OR   CLOUDY    37  34  89 CALM      29.53F
$$

WAZ021-516-517-221000-
WASHINGTON COAST

CITY           SKY/WX    TMP DP  RH WIND       PRES   REMARKS
FORKS          MOCLDY    39  37  92 E8        29.49F
HOQUIAM        PTCLDY    42  41  96 NE14      29.50F
ASTORIA, OR    MOCLDY    43  38  82 S5        29.46F
$$

WAZ019-023-024-040-567>569-221000-
CASCADE MOUNTAINS AND COLUMBIA GORGE

CITY           SKY/WX    TMP DP  RH WIND       PRES   REMARKS
STAMPEDE PASS  NOT AVBL
TROUTDALE, OR  CLOUDY    40  35  83 E21G29    29.52F
THE DALLES, OR FOG       32  31  96 E3        29.67F VSB 1/4
$$

WAZ026-027-041>044-520-521-221000-
EAST SLOPES

CITY           SKY/WX    TMP DP  RH WIND       PRES   REMARKS
OMAK           LGT RAIN  34  31  88 S3        29.72R FOG
WENATCHEE      FOG       33  33 100 CALM      29.68R VSB 1/4
ELLENSBURG     FOG       34  32  92 CALM      29.64S VSB 1
YAKIMA         PTCLDY    32  30  92 CALM      29.67S FOG
$$

WAZ028-034-035-221000-
COLUMBIA BASIN

CITY           SKY/WX    TMP DP  RH WIND       PRES   REMARKS
EPHRATA        CLOUDY    34  30  85 N7        29.67F
MOSES LAKE     PTCLDY    32  30  92 CALM      29.68F FOG
PASCO          FOG       27  27 100 CALM      29.72S VSB 1/2
HERMISTON, OR  FOG       28  28 100 CALM      29.68S VSB 3/4
$$

WAZ036>038-221000-
NORTHEAST WASHINGTON

CITY           SKY/WX    TMP DP  RH WIND       PRES   REMARKS
SPOKANE GEIGER FLURRIES  35  32  88 SE10      29.70S WCI  27
SPOKANE FELTS  MIX PCPN  35  33  92 NE6       29.74R
FAIRCHILD AFB  CLOUDY    34  34 100 E8        29.69S
COEURDALENE,ID CLOUDY    33  31  92 NE3       29.74R
DEER PARK      CLOUDY    34  32  92 CALM      29.73R
$$

WAZ029>033-221000-
SOUTHEAST WASHINGTON

CITY           SKY/WX    TMP DP  RH WIND       PRES   REMARKS
PULLMAN        CLOUDY    35  31  85 E9        29.74R
LEWISTON, ID   PTCLDY    37  30  75 E6        29.75F
WALLA WALLA    CLOUDY    45  30  55 SE10      29.68R
PENDLETON, OR  CLOUDY    41  30  65 S6        29.66S
$$




USA.gov is the U.S. government's official web portal to all federal, state and local government web resources and services.